Regional Weather Roundup
Issued by NWS Green Bay, WI

Home | Current Version | Previous Version | Graphics & Text | Print | Product List | Glossary Off
Versions: 1 2 3 4 5 6 7 8 9 10 11 12 13 14 15 16 17 18 19 20 21 22 23 24 25 26 27 28 29 30 31 32 33 34 35 36 37 38 39 40 41 42 43 44 45 46 47 48 49 50

000
ASUS43 KGRB 171200
RWRGRB

NORTH-CENTRAL AND NORTHEAST WISCONSIN REGIONAL WEATHER ROUNDUP
NATIONAL WEATHER SERVICE GREEN BAY WI
700 AM CDT TUE OCT 17 2017

WIZ005-009-010>012-018-019-171300-
NORTH CENTRAL WISCONSIN

CITY           SKY/WX    TMP DP  RH WIND       PRES   REMARKS
IRONWOOD       PTCLDY    44  37  76 SW7       29.96R
MANITOWISH WTR NOT AVBL
ARBOR VITAE    NOT AVBL
EAGLE RIVER    NOT AVBL
LAND O LAKES   NOT AVBL
RHINELANDER    CLOUDY    39  36  89 W7        29.99R
PHILLIPS       PTCLDY    36  36 100 CALM      29.99R
ANTIGO         NOT AVBL
TOMAHAWK       NOT AVBL
MERRILL        CLOUDY    32  32  99 CALM      30.01R
$$

WIZ013-073-171300-
NORTHEAST WISCONSIN

CITY           SKY/WX    TMP DP  RH WIND       PRES   REMARKS
IRON MOUNTAIN  CLOUDY    48  36  63 W9        29.95
MARINETTE      PTCLDY    47  38  71 W6        29.99R
$$

WIZ017-030-035>037-045-171300-
CENTRAL WISCONSIN

CITY           SKY/WX    TMP DP  RH WIND       PRES   REMARKS
MEDFORD        NOT AVBL
WAUSAU         CLEAR     45  38  76 S8        29.99S
MOSINEE        CLEAR     41  37  87 CALM      30.02R
MARSHFIELD     CLEAR     45  37  73 SW5       30.01R
WISC RAPIDS    CLEAR     45  39  79 SW7       30.04R
STEVENS POINT  NOT AVBL
WAUPACA        NOT AVBL
SHAWANO        PTCLDY    46  38  76 CALM      30.00S
CLINTONVILLE   NOT AVBL
WAUTOMA        CLEAR     36  35  96 CALM      30.04S
$$

WIZ038-039-048-051-171300-
FOX VALLEY

CITY           SKY/WX    TMP DP  RH WIND       PRES   REMARKS
NWS GREEN BAY  CLEAR     47  41  80 SW6       30.02R
APPLETON       PTCLDY    48  36  61 SW12      30.01S
OSHKOSH        CLEAR     48  39  71 SW9       30.03S
FOND DU LAC    CLEAR     48  38  68 SW12      30.06R
$$

WIZ022-050-052-171300-
EAST CENTRAL WISCONSIN

CITY           SKY/WX    TMP DP  RH WIND       PRES   REMARKS
EPHRAIM        FAIR      51  41  67 W12G17    29.97S
WASHINGTON ISL NOT AVBL
STURGEON BAY   PTCLDY    52  41  66 SW13      29.99R
MANITOWOC      CLEAR     54  39  57 W14G21    30.02S
SHEBOYGAN      CLEAR     51  41  68 SW9       30.05R
$$

LMZ563-521-522-541>543-171300-
LAKESHORE

STATION/POSITION TIME  TEMP    WIND        PRES    VSBY  WAVE
                       AIR SEA DIR/SP/G                  HT/PER
                 (UTC) (F)     (DEG/KT/KT) (MB)    (MI)  (FT/S)
SHEBOYGAN LKSHOR 1100   55     250/ 16/ 19 1016.9F
KEWAUNEE LKSHORE 1130   54     260/ 11/ 18 1015.1R
NORTHPORT PIER   1140   54     230/  6/ 18 1014.6R
N MID LAKE BUOY  1050   58 60  230/ 21/ 25 1014.4R         6/ 7
S GREEN BAY BUOY 1130   55 58  220/ 17/ 23 1015.2R
MENOMINEE LKSHOR 1130   49     230/ 10/ 12 1014.8R
$$



USA.gov is the U.S. government's official web portal to all federal, state and local government web resources and services.